AMSAT OSCAR 40

Satellite information

Favourite Embed

Satellite Type and Status

PAYLOADIN ORBIT

Key statistics

Satellite AMSAT OSCAR 40 at a glance.

Uptime

9163

Days in orbit

Revolutions

≈ 1.3

Per day

Orbit

OTHER

Other

Inclination

9.7

Latest

Satellite identification and parameters

Extended collection of information and parameters for AMSAT OSCAR 40.

Object identification

Identified? True

Debris? False

Object name: AMSAT OSCAR 40

International designator: 2000-072B

Object number (NORAD): 26609

Object ID (CCSDS): 26609

Country: GERMANY (GER)

Current information (Y/N): Y

RCS size: LARGE

Orbital parameters

Period: 1146.614 minutes

Inclination: 9.7168 deg

SMA: 36288.712 km

Apoapsis: 58742.893 km

Periapsis: 1078.262 km

RAAN: 18.5419 deg

Eccentricy: 0.79452573

Argument of periapsis: 121.4079 deg

Mean anomaly: 337.4964 deg

Mean motion: 1.25587215 rev/day

Mean motion (dot): -0.00000198 rev/day2

B* drag term: 0.0 1/REarth

Two-line elements (TLE)

Creation date: Dec. 17, 2025, 7:48 p.m.

Reference frame: TEME

Reference center: EARTH

Epoch: Dec. 16, 2025, 12:54 p.m. UTC

TLE line 0: 0 AMSAT OSCAR 40

TLE line 1: 1 26609U 00072B 25350.53790913 -.00000198 00000-0 00000-0 0 9993

TLE line 2: 2 26609 9.7168 18.5419 7945257 121.4079 337.4964 1.25587215115219

Live tracking on map

Real-time ground track for satellite AMSAT OSCAR 40.

In-orbit conjunctions

There are no conjunctions computed for AMSAT OSCAR 40, at the moment. Check back to stay up to date, as we update our databases every day.

Go to all conjunctions

Associated space launch

PAS-1R a commications satellite located at 40 degrees west, serving the Americas, the Caribbean, Europe and Africa, operated by PanAmSat. Amsat P3D was an amateur radio satellite built and operated by AmSat. STRV was a series of four satellites operated by the UK MoD, intended to test new technologies, two were launched on this vehicle.

AMSAT OSCAR 40 was lifted into orbit during the mission ‘Ariane 5 G | PAS-1R, Amsat P3D, STRV 1C, STRV 1D’, on board a Ariane 5 G space rocket.

The launch took place on Nov. 16, 2000, 1:07 a.m. from Ariane Launch Area 3.

For more information about the launch, click the button.

Launch to space Ariane 5 G | PAS-1R, Amsat P3D, STRV 1C, STRV 1D
Ariane 5 G | PAS-1R, Amsat P3D, STRV 1C, STRV 1D

Agency: N/A

Status: Launch Successful

Launch date: Nov. 16, 2000, 1:07 a.m. UTC

Rocket: Ariane 5 G

Launch pad: Ariane Launch Area 3

Location: Guiana Space Centre, French Guiana

...

Latest news about this satellite

There are no fresh news available about this satellite. Check back as we update our databases every day.


Newsletter sign-up

Weekly statistics, charts and insights to help you stay on top of the space industry.